sat.trackr.live / text

‹ back to catalog

NULINK-2

NORAD 68994 · 2026-100Q

PAYLOAD ACTIVE UNKNOWN

§ Identity

Operator
Country
SING
Launch date
2026-05-03
Launch site
AFWTR
Launch vehicle
Mass (kg)
RCS (m²)

External: N2YO · Heavens-Above · Gunter

§ Orbital elements

Epoch: 2026-09-20T04:13:30.689760Z

Period
96.47 min
Inclination
97.7201°
Eccentricity
0.0002060
Mean motion
14.92761150 rev/d
Perigee alt
587.9 km
Apogee alt
590.8 km
Semi-major
6,967.5 km
B*
6.6062e-5
RAAN
158.9280°
Arg perigee
52.5170°
Mean anomaly
307.6236°
Rev number
2,087

§ Raw data

NULINK-21 68994U 26100Q   26263.17604965  .00000627  00000+0  66062-4 0  99902 68994  97.7201 158.9280 0002060  52.5170 307.6236 14.92761150 20875

JSON: /api/v1/satellites/68994 · /tle

For live sub-satellite position, see the globe view (requires WebGL).

§ Visibility from observer

Set your observer location to see the next 7 days of passes ≥ 10°. The values pass through the URL so the page stays shareable.

No JS? Fill the form by hand. The geolocation button needs JavaScript.